TimeEDT,TemperatureF,Dew PointF,Humidity,Sea Level PressureIn,VisibilityMPH,Wind Direction,Wind SpeedMPH,Gust SpeedMPH,PrecipitationIn,Events,Conditions,WindDirDegrees,DateUTC
12:14 AM,67.3,65.5,94,29.95,10.0,West,8.1,-,N/A,,Mostly Cloudy,280,2013-08-22 04:14:00
12:35 AM,68.0,65.3,91,29.95,10.0,West,5.8,-,N/A,,Overcast,270,2013-08-22 04:35:00
12:54 AM,67.3,64.9,92,29.95,10.0,West,5.8,-,N/A,,Overcast,260,2013-08-22 04:54:00
1:14 AM,66.4,64.6,94,29.96,10.0,SW,6.9,-,N/A,,Mostly Cloudy,220,2013-08-22 05:14:00
1:34 AM,66.2,64.6,94,29.96,10.0,SW,9.2,-,N/A,,Mostly Cloudy,230,2013-08-22 05:34:00
1:54 AM,65.8,64.4,95,29.96,10.0,WSW,5.8,-,N/A,,Overcast,240,2013-08-22 05:54:00
2:15 AM,65.5,64.4,96,29.96,10.0,WSW,8.1,-,N/A,,Overcast,250,2013-08-22 06:15:00
2:34 AM,65.7,64.6,96,29.95,10.0,West,4.6,-,N/A,,Mostly Cloudy,260,2013-08-22 06:34:00
2:55 AM,63.9,63.0,97,29.95,7.0,West,5.8,-,N/A,,Scattered Clouds,270,2013-08-22 06:55:00
3:15 AM,64.4,63.5,97,29.95,7.0,WNW,5.8,-,N/A,,Scattered Clouds,290,2013-08-22 07:15:00
3:34 AM,65.3,63.7,94,29.96,10.0,NW,5.8,-,N/A,,Clear,310,2013-08-22 07:34:00
3:55 AM,64.8,63.0,94,29.96,10.0,WNW,6.9,-,N/A,,Clear,300,2013-08-22 07:55:00
4:15 AM,64.0,62.4,94,29.97,10.0,NW,4.6,-,N/A,,Clear,310,2013-08-22 08:15:00
4:34 AM,63.0,61.7,96,29.98,10.0,NW,4.6,-,N/A,,Clear,310,2013-08-22 08:34:00
4:55 AM,62.2,60.8,95,29.98,10.0,NW,4.6,-,N/A,,Clear,320,2013-08-22 08:55:00
5:15 AM,61.0,59.2,94,29.98,10.0,WNW,3.5,-,N/A,,Clear,300,2013-08-22 09:15:00
5:34 AM,60.3,58.8,95,29.98,10.0,WNW,3.5,-,N/A,,Clear,300,2013-08-22 09:34:00
5:55 AM,59.5,58.3,96,29.99,10.0,WNW,4.6,-,N/A,,Clear,300,2013-08-22 09:55:00
6:14 AM,56.8,56.5,99,30.00,7.0,West,3.5,-,N/A,,Clear,260,2013-08-22 10:14:00
6:34 AM,57.0,56.1,97,29.99,7.0,Calm,Calm,-,N/A,,Clear,0,2013-08-22 10:34:00
6:55 AM,57.9,56.8,96,30.00,10.0,WNW,3.5,-,N/A,,Clear,300,2013-08-22 10:55:00
7:14 AM,59.2,57.4,94,30.00,10.0,NNW,3.5,-,N/A,,Clear,330,2013-08-22 11:14:00
7:35 AM,59.9,57.2,91,30.02,10.0,NW,5.8,-,N/A,,Clear,320,2013-08-22 11:35:00
7:54 AM,60.8,58.3,91,30.01,10.0,Calm,Calm,-,N/A,,Clear,0,2013-08-22 11:54:00
8:14 AM,61.0,57.2,87,30.02,10.0,Calm,Calm,-,N/A,,Scattered Clouds,0,2013-08-22 12:14:00
8:35 AM,60.4,56.5,87,30.03,10.0,NW,3.5,-,N/A,,Mostly Cloudy,310,2013-08-22 12:35:00
8:54 AM,60.8,56.7,86,30.03,10.0,NW,3.5,-,N/A,,Mostly Cloudy,320,2013-08-22 12:54:00
9:15 AM,61.5,57.4,86,30.05,10.0,NNW,6.9,-,N/A,,Mostly Cloudy,330,2013-08-22 13:15:00
9:35 AM,60.8,56.7,86,30.04,10.0,NW,3.5,-,N/A,,Mostly Cloudy,310,2013-08-22 13:35:00
9:54 AM,61.0,56.8,86,30.04,10.0,Calm,Calm,-,N/A,Rain,Light Rain,0,2013-08-22 13:54:00
10:15 AM,60.8,57.4,88,30.06,10.0,NW,3.5,-,N/A,,Overcast,310,2013-08-22 14:15:00
10:35 AM,61.0,55.9,83,30.06,10.0,WNW,5.8,-,N/A,Rain,Light Rain,300,2013-08-22 14:35:00
10:54 AM,62.2,56.1,80,30.06,10.0,NW,6.9,-,N/A,,Overcast,310,2013-08-22 14:54:00
11:15 AM,64.6,56.3,74,30.07,10.0,NW,8.1,-,N/A,,Mostly Cloudy,310,2013-08-22 15:15:00
11:34 AM,66.9,56.1,68,30.08,10.0,NW,9.2,-,N/A,,Scattered Clouds,310,2013-08-22 15:34:00
11:54 AM,70.0,55.4,60,30.07,10.0,NNW,6.9,-,N/A,,Clear,330,2013-08-22 15:54:00
12:15 PM,71.2,55.0,56,30.07,10.0,WNW,9.2,-,N/A,,Clear,290,2013-08-22 16:15:00
12:34 PM,72.5,54.5,53,30.08,10.0,WNW,5.8,-,N/A,,Clear,300,2013-08-22 16:34:00
12:55 PM,73.6,54.5,51,30.08,10.0,WNW,8.1,-,N/A,,Clear,300,2013-08-22 16:55:00
1:15 PM,74.1,53.1,48,30.07,10.0,NNW,9.2,-,N/A,,Clear,330,2013-08-22 17:15:00
1:34 PM,74.3,53.1,47,30.07,10.0,WNW,9.2,-,N/A,,Clear,290,2013-08-22 17:34:00
1:55 PM,75.4,51.8,44,30.07,10.0,WNW,6.9,-,N/A,,Clear,300,2013-08-22 17:55:00
2:15 PM,75.6,50.5,41,30.07,10.0,NW,4.6,9.2,N/A,,Clear,310,2013-08-22 18:15:00
2:34 PM,75.9,49.8,40,30.07,10.0,NNW,10.4,-,N/A,,Scattered Clouds,340,2013-08-22 18:34:00
2:55 PM,75.6,48.2,38,30.07,10.0,NW,10.4,-,N/A,,Clear,320,2013-08-22 18:55:00
3:14 PM,75.4,47.3,37,30.07,10.0,NNW,8.1,-,N/A,,Clear,330,2013-08-22 19:14:00
3:34 PM,75.7,46.0,35,30.07,10.0,NNW,10.4,16.1,N/A,,Clear,330,2013-08-22 19:34:00
3:55 PM,76.3,48.2,37,30.07,10.0,NNW,10.4,17.3,N/A,,Clear,340,2013-08-22 19:55:00
4:14 PM,74.8,47.5,38,30.07,10.0,North,8.1,-,N/A,,Clear,360,2013-08-22 20:14:00
4:35 PM,74.3,47.8,39,30.08,10.0,NNW,12.7,16.1,N/A,,Clear,340,2013-08-22 20:35:00
4:54 PM,74.1,49.6,42,30.08,10.0,NW,6.9,-,N/A,,Clear,320,2013-08-22 20:54:00
5:14 PM,74.3,50.9,44,30.08,10.0,NNW,10.4,-,N/A,,Clear,330,2013-08-22 21:14:00
5:35 PM,72.7,48.9,43,30.08,10.0,North,9.2,16.1,N/A,,Clear,350,2013-08-22 21:35:00
5:54 PM,72.0,49.1,44,30.08,10.0,NNW,10.4,17.3,N/A,,Clear,340,2013-08-22 21:54:00
6:15 PM,71.6,48.6,44,30.09,10.0,NNW,6.9,-,N/A,,Clear,340,2013-08-22 22:15:00
6:35 PM,70.7,48.2,45,30.09,10.0,NNW,9.2,-,N/A,,Clear,340,2013-08-22 22:35:00
6:54 PM,70.0,49.5,48,30.09,10.0,NNW,4.6,-,N/A,,Clear,330,2013-08-22 22:54:00
7:15 PM,68.9,50.2,51,30.09,10.0,NNW,4.6,-,N/A,,Clear,330,2013-08-22 23:15:00
7:35 PM,67.6,49.8,53,30.10,10.0,NNW,5.8,-,N/A,,Clear,340,2013-08-22 23:35:00
7:54 PM,66.4,50.5,57,30.10,10.0,NW,3.5,-,N/A,,Clear,320,2013-08-22 23:54:00
8:15 PM,64.4,50.9,62,30.10,10.0,NNW,3.5,-,N/A,,Clear,330,2013-08-23 00:15:00
8:34 PM,62.1,50.9,67,30.11,10.0,Calm,Calm,-,N/A,,Clear,0,2013-08-23 00:34:00
8:54 PM,61.2,50.9,69,30.11,10.0,NNW,3.5,-,N/A,,Clear,330,2013-08-23 00:54:00
9:15 PM,59.9,51.3,73,30.12,10.0,Calm,Calm,-,N/A,,Clear,0,2013-08-23 01:15:00
9:34 PM,58.6,51.8,78,30.12,10.0,Calm,Calm,-,N/A,,Clear,0,2013-08-23 01:34:00
9:55 PM,57.7,51.6,80,30.12,10.0,WNW,3.5,-,N/A,,Clear,300,2013-08-23 01:55:00
10:15 PM,56.5,51.3,83,30.13,10.0,WNW,3.5,-,N/A,,Clear,290,2013-08-23 02:15:00
10:34 PM,56.5,51.6,84,30.13,10.0,NW,3.5,-,N/A,,Clear,320,2013-08-23 02:34:00
10:55 PM,57.2,52.0,83,30.14,10.0,NNW,3.5,-,N/A,,Clear,330,2013-08-23 02:55:00
11:15 PM,56.5,52.2,85,30.14,10.0,Calm,Calm,-,N/A,,Clear,0,2013-08-23 03:15:00
11:34 PM,57.0,52.7,85,30.14,10.0,NW,4.6,-,N/A,,Clear,320,2013-08-23 03:34:00
11:55 PM,56.5,52.7,87,30.13,10.0,NW,4.6,-,N/A,,Clear,320,2013-08-23 03:55:00